Regional Weather Roundup
Issued by NWS Newport/Morehead, NC

Home | Current Version | Previous Version | Text Only | Print | Product List | Glossary On
Versions: 1 2 3 4 5 6 7 8 9 10 11 12 13 14 15 16 17 18 19 20 21 22 23 24 25 26 27 28 29 30 31 32 33 34 35 36 37 38 39 40 41 42 43 44 45 46 47 48 49 50
000
ASUS42 KMHX 040012
RWRMHX
WEATHER ROUNDUP FOR EASTERN NORTH CAROLINA
NATIONAL WEATHER SERVICE NEWPORT/MOREHEAD CITY NC
700 PM EST SAT DEC 03 2016

NOTE: "FAIR" INDICATES FEW OR NO CLOUDS BELOW 12,000 FEET
WITH NO SIGNIFICANT WEATHER AND/OR OBSTRUCTIONS TO VISIBILITY

NCZ015>017-031-032-045>047-102-103-040100-
NORTH COAST

CITY           SKY/WX    TMP DP  RH WIND       PRES   REMARKS
EDENTON        CLOUDY    46  37  73 CALM      30.23F
ELIZABETH CITY CLOUDY    45  32  60 NW8       30.23S
KITTY HAWK     PTCLDY    47  35  62 NW5       30.20F
MANTEO         CLOUDY    48  34  58 N6        30.21F

$$

NCZ045>047-081-094-103-104-040100-
CENTRAL COAST

CITY           SKY/WX    TMP DP  RH WIND       PRES   REMARKS
FRISCO         MOCLDY    50  34  54 N8        30.21R

$$

NCZ095-097-098-100-101-040100-
SOUTHERN COAST

CITY           SKY/WX    TMP DP  RH WIND       PRES   REMARKS
BEAUFORT       PTCLDY    47  36  65 N5        30.24R
CEDAR ISLAND   NOT AVBL
JACKSONVILLE   MOCLDY    46  37  71 CALM      30.24S
PINEY ISLAND   CLOUDY   N/A N/A N/A N5        30.23R
WILMINGTON     CLOUDY    47  36  65 NW3       30.25S


$$

NCZ011>013-027>030-043-044-078>080-089-090>093-098-040100-
COASTAL PLAIN

CITY           SKY/WX    TMP DP  RH WIND       PRES   REMARKS
AHOSKIE        MOCLDY    42  33  69 CALM      30.24S
CLINTON        PTCLDY    46  37  69 CALM      30.26R HAZE
ELIZABETHTOWN  CLOUDY    47  37  70 CALM      30.25S
GOLDSBORO      CLOUDY    47  34  60 CALM      30.22S
GREENVILLE     CLOUDY    45  36  70 CALM      30.24F
HAVELOCK       CLOUDY    45  36  70 SW3       30.25R
KENANSVILLE    CLOUDY    43  37  81 CALM      30.25R
KINSTON        CLOUDY    43  37  81 CALM      30.25R
NEW BERN       CLOUDY    45  36  70 S3        30.25R
RICHLANDS      MOCLDY    43  39  86 CALM      30.25S
ROCKY MOUNT    CLOUDY    42  36  79 CALM      30.24S
WASHINGTON     CLOUDY    46  32  58 CALM      30.24S
WHITEVILLE     CLOUDY    46  37  69 CALM      30.25R

$$

AMZ130-135-150-152-154-156-158-170-250-252-270-ANZ085-086-088-633-658-670-040100-
MARINE OBSERVATIONS

STATION/POSITION TIME  TEMP    WIND        PRES    WAVE   SWELL
                       AIR SEA DIR/SP/G            HT/PER HT/PER
                 (UTC) (F)     (DEG/KT/KT) (MB)    (FT/S) (FT/S)
CHESAPEAKE LIGHT NOT AVBL
64 E VA BEACH    2350   51 60  330/ 21/ 25 1021.9    7/ 6
DUCK             2348   49 56  320/ 10/ 12 1022.6
2 E DUCK         NOT AVBL
OREGON INLET     2348          330/  8/ 10 1022.7
13E OREGON INLT  2330      61                N/A     5/ 7   5/ 7
HATTERAS CG      2348   51 58  340/ 13/ 16 1022.5
DIAMOND BUOY     2350   63 74  360/ 16/ 19 1022.8    5/ 8   3/ 8
CAPE LOOKOUT     2300   50     350/  4/  5 1023.1
BEAUFORT LAB     2348   49 56  320/  4/  5 1022.9
30 SE NEW RVR IN 2308   54 71   10/ 10/ 14 1023.7
30 SE NEW RVR IN NOT AVBL
27 SE WRIGHTSVLE 2308   53 69  360/ 10/ 16 1023.5
5 SE WRIGHTSVLE  2308   50 63  350/ 12/ 17 1023.3
225 S CAPE HAT   2350   63 73  360/ 12/ 16 1021.1    5/ 8   5/ 8
41 SE CHARLESTON 2350   56 75   20/ 12/ 17 1023.4    4/ 6   2/ 7

$$



USA.gov is the U.S. government's official web portal to all federal, state and local government web resources and services.